[[{"header":{"parameterUnit":"m.s-1","parameterCategory":1,"la1":30.2991,"la2":30.254,"lo1":-89.0895,"lo2":-89.0444,"dy":0.0017,"dx":0.0017,"nx":28,"ny":28,"refTime":"2025-03-10T09:00:00:Z","depth":0,"parameterNumber":2,"parameterNumberName":"U-component_of_WINDS"},"data":[0,0,0,0,0,0,0,0,0,0,0,0,0,0,0,0,0,0,0,0,0,0,0,0,0,0,0,0,0,0,0,0,0,0,0,0,0,0,0,0,0,0,0,0,0,0,0,0,0,0,0,0,0,0,0,0,0,0,4.2712,4.2713,0,4.2819,4.282,4.2821,4.2743,4.2739,4.2736,4.2733,4.2843,4.2849,4.2855,0,0,0,0,0,0,0,0,0,0,0,0,0,4.2439,4.2444,4.2712,4.2713,4.2715,4.2819,4.282,4.2822,4.2744,4.2739,4.2735,4.2731,4.2841,4.2848,4.2855,0,0,0,0,0,0,0,0,0,0,0,0,0,4.2553,4.2446,4.2712,4.2688,4.2687,4.2818,4.282,4.2822,4.2744,4.2739,4.2734,4.2729,4.2838,4.2847,4.2856,4.3017,0,0,4.2884,4.2888,0,0,0,0,0,0,0,0,4.2546,4.2563,4.269,4.269,4.2689,4.2762,4.2764,4.2887,4.2746,4.2723,4.2733,4.2727,4.282,4.283,4.2862,4.3022,4.3026,4.2885,4.2891,4.2895,4.2897,0,0,0,0,0,0,0,4.2539,4.2558,4.2754,4.2692,4.2692,4.2672,4.2682,4.2787,4.2799,4.2724,4.2719,4.2733,4.2819,4.2853,4.2864,4.3028,4.2885,4.2893,4.2899,4.2902,4.332,4.3326,0,0,0,0,0,0,4.2533,4.2552,4.2751,4.2757,4.2604,4.2681,4.2693,4.2744,4.2798,4.2801,4.2737,4.2729,4.284,4.2853,4.2867,4.3055,4.2895,4.2903,4.2909,4.3315,4.3322,4.3328,0,0,0,0,0,0,4.2527,4.2552,4.2746,4.2653,4.2676,4.2691,4.2749,4.2749,4.2783,4.2807,4.2809,4.277,4.2836,4.2855,4.2979,4.3058,4.2907,4.2916,4.3308,4.3317,4.3325,4.3435,0,0,0,0,0,0,4.252,4.255,4.2612,4.2655,4.2682,4.2857,4.2754,4.2755,4.2799,4.2789,4.2839,4.2842,4.2834,4.2966,4.2988,4.3068,4.2923,4.3301,4.3312,4.3322,4.3424,4.3446,4.3465,0,0,0,0,0,4.251,4.2639,4.2615,4.2639,4.2759,4.2862,4.2877,4.2865,4.2806,4.2867,4.2882,4.284,4.3047,4.2979,4.3004,4.3088,4.3296,4.3309,4.3321,4.3415,4.3442,4.3464,0,0,0,0,0,0,4.2605,4.2644,4.2618,4.2765,4.2811,4.2848,4.2925,4.2894,4.2958,4.2946,4.2928,4.294,4.307,4.3092,4.3016,4.3244,4.3162,4.318,4.3225,4.325,4.327,4.3261,4.2931,0,0,0,0,0,4.2643,4.2724,4.2754,4.288,4.2904,4.2911,4.2956,4.2942,4.2989,4.3008,4.3032,4.3079,4.3153,4.3203,4.3274,4.3427,4.3435,4.3497,4.3517,4.3534,4.3549,4.3628,4.3655,4.3369,4.3369,4.3369,0,0,4.2722,4.2754,4.2806,4.29,4.2933,4.3016,4.2928,4.302,4.3081,4.3022,4.314,4.316,4.321,4.3349,4.3412,4.3371,4.363,4.355,4.3563,4.3569,4.3644,4.3671,4.3695,4.3378,4.3376,4.3375,0,0,4.2908,4.2941,4.3048,4.3084,4.3135,4.3139,4.3165,4.3207,4.3218,4.3336,4.3292,4.3364,4.3495,4.3532,4.3568,4.3765,4.3728,4.3789,4.3894,4.3971,4.3994,4.4013,4.4081,4.4105,4.3804,4.3805,4.3805,0,4.2999,4.3122,4.3108,4.3202,4.3243,4.3193,4.3301,4.3336,4.3409,4.3438,4.3392,4.3552,4.3583,4.3728,4.3776,4.3808,4.3835,4.3782,4.3992,4.4011,4.403,4.4093,4.4119,4.3812,4.3811,4.381,4.3809,0,4.3231,4.3317,4.3397,4.3467,4.3518,4.3619,4.3618,4.3671,4.3653,4.3661,4.3781,4.3816,4.3891,4.3925,4.391,4.4068,4.404,4.3994,4.391,4.4064,4.4123,4.4148,4.3821,4.3819,4.3817,4.3815,0,0,4.3479,4.3538,4.3567,4.3597,4.365,4.3716,4.3813,4.3886,4.3931,4.3983,4.4062,4.4173,4.4129,4.417,4.4157,4.4226,4.4376,4.417,4.4171,4.4204,4.4548,4.4581,4.461,4.4352,4.4357,4.4361,4.4543,0,4.3664,4.3834,4.3822,4.3982,4.4059,4.4012,4.4097,4.4138,4.4148,4.4214,4.4225,4.4302,4.4241,4.4264,4.433,4.4344,4.4444,4.4331,4.4424,4.4428,4.441,4.4642,4.4677,4.4847,4.4566,4.4571,4.4573,0,4.3904,4.3962,4.4129,4.4167,4.4199,4.4275,4.434,4.4405,4.445,4.4452,4.4497,4.4472,4.4569,4.4485,4.4617,4.454,4.4578,4.459,4.4596,4.4602,4.4508,4.4651,4.4902,4.4926,4.4611,4.4608,4.4605,0,4.4063,4.4184,4.4298,4.4326,4.4375,4.4429,4.4451,4.4491,4.4535,4.4591,4.4619,4.4687,4.4723,4.4775,4.4769,4.4709,4.4902,4.4819,4.4905,4.4905,4.4946,4.4943,4.5203,4.4975,4.4975,4.4974,4.4974,0,4.427,4.4373,4.437,4.444,4.4553,4.4539,4.4652,4.4668,4.4704,4.4775,4.474,4.4808,4.4797,4.4864,4.486,4.4968,4.4986,4.4989,4.4986,4.499,4.499,4.5013,4.5,4.4981,4.498,4.4978,4.4977,0,4.4467,4.4469,4.459,4.4626,4.4637,4.4719,4.4749,4.4815,4.4821,4.4912,4.4932,4.4943,4.502,4.502,4.5109,4.5106,4.5237,4.5222,4.5221,4.5217,4.5302,4.5293,4.5584,4.562,4.5372,4.5374,4.5376,0,4.4597,4.4675,4.4718,4.4763,4.4789,4.4863,4.4907,4.4896,4.4943,4.4998,4.5057,4.5131,4.5189,4.5315,4.5329,4.5396,4.5381,4.5479,4.5391,4.5392,4.5378,4.5373,4.5379,4.5495,4.5498,4.55,4.5502,0,4.4827,4.4824,4.4888,4.4953,4.5006,4.5057,4.5104,4.5142,4.5136,4.5191,4.5269,4.5314,4.5404,4.5476,4.5541,4.5563,4.5531,4.553,4.5552,4.5556,4.5551,4.5551,4.5265,4.5522,4.552,4.5519,4.5518,4.5517,4.4992,4.5057,4.5098,4.517,4.5204,4.5248,4.531,4.5324,4.5389,4.546,4.545,4.5537,4.5577,4.566,4.5688,4.5755,4.572,4.5755,4.5763,4.577,4.5778,4.5543,4.5767,4.5766,4.5766,4.5765,4.5765,0,4.5217,4.524,4.5307,4.5372,4.5429,4.5394,4.5444,4.5493,4.5569,4.561,4.5668,4.5756,4.5826,4.5846,4.5914,4.5963,4.595,4.5981,4.5975,4.598,4.5807,4.5779,4.599,4.599,4.599,4.599,4.599,4.599,4.534,4.5448,4.545,4.5574,4.5596,4.568,4.5711,4.575,4.5782,4.5883,4.594,4.5953,4.5985,4.6054,4.6116,4.612,4.6145,4.6181,4.6179,4.6016,4.5993,4.5971,4.5945,4.6188,4.6188,4.6347,4.6348,4.6349]},{"header":{"parameterUnit":"m.s-1","parameterCategory":1,"la1":30.2991,"la2":30.254,"lo1":-89.0895,"lo2":-89.0444,"dy":0.0017,"dx":0.0017,"nx":28,"ny":28,"refTime":"2025-03-10T09:00:00:Z","depth":0,"parameterNumber":3,"parameterNumberName":"V-component_of_WINDS"},"data":[0,0,0,0,0,0,0,0,0,0,0,0,0,0,0,0,0,0,0,0,0,0,0,0,0,0,0,0,0,0,0,0,0,0,0,0,0,0,0,0,0,0,0,0,0,0,0,0,0,0,0,0,0,0,0,0,0,0,3.4573,3.4575,0,3.4702,3.4703,3.4705,3.4713,3.4711,3.471,3.4708,3.4836,3.484,3.4845,0,0,0,0,0,0,0,0,0,0,0,0,0,3.4328,3.4333,3.4573,3.4575,3.4576,3.4702,3.4704,3.4705,3.4713,3.4711,3.4709,3.4708,3.4834,3.484,3.4845,0,0,0,0,0,0,0,0,0,0,0,0,0,3.4443,3.4334,3.4573,3.4596,3.4599,3.4701,3.4704,3.4706,3.4713,3.4711,3.4709,3.4707,3.4832,3.4839,3.4846,3.4934,0,0,3.4868,3.4871,0,0,0,0,0,0,0,0,3.4437,3.4452,3.4591,3.4594,3.4598,3.4689,3.4664,3.4782,3.4714,3.467,3.4708,3.4706,3.4788,3.4799,3.4828,3.4939,3.4945,3.4868,3.4873,3.4876,3.4878,0,0,0,0,0,0,0,3.4429,3.4447,3.4624,3.4593,3.4597,3.4597,3.4611,3.4686,3.4739,3.4673,3.4674,3.469,3.479,3.4821,3.4831,3.4947,3.4868,3.4875,3.4879,3.4882,3.5134,3.5136,0,0,0,0,0,0,3.4417,3.444,3.462,3.4628,3.4511,3.4603,3.4619,3.4662,3.4739,3.4748,3.4691,3.469,3.481,3.4822,3.4835,3.4941,3.4876,3.4882,3.4886,3.5131,3.5134,3.5137,0,0,0,0,0,0,3.4412,3.4433,3.4615,3.4534,3.4558,3.461,3.4658,3.4666,3.4697,3.4752,3.4761,3.4714,3.4809,3.4825,3.4909,3.4946,3.4886,3.4892,3.5128,3.5132,3.5136,3.5154,0,0,0,0,0,0,3.4405,3.4431,3.4467,3.4535,3.4562,3.4688,3.4661,3.467,3.471,3.4708,3.4776,3.4785,3.4808,3.4898,3.4916,3.4954,3.4898,3.5125,3.513,3.5134,3.5151,3.5158,3.5165,0,0,0,0,0,3.4396,3.4466,3.4469,3.449,3.4607,3.469,3.4705,3.4732,3.4713,3.4747,3.4783,3.4782,3.4939,3.4907,3.4927,3.4968,3.5123,3.5129,3.5134,3.5148,3.5157,3.5165,0,0,0,0,0,0,3.44,3.4476,3.4479,3.4574,3.4626,3.4692,3.4737,3.4741,3.4799,3.4795,3.4825,3.484,3.4922,3.4953,3.4916,3.5055,3.5028,3.5038,3.5032,3.5041,3.5048,3.5038,3.4903,0,0,0,0,0,3.4412,3.4475,3.4537,3.4614,3.464,3.4684,3.4721,3.4737,3.4791,3.4813,3.4855,3.4906,3.4966,3.5005,3.5064,3.5155,3.5168,3.5193,3.52,3.5205,3.5213,3.5261,3.5272,3.5155,3.5155,3.5155,0,0,3.4437,3.4486,3.4524,3.4616,3.4659,3.4721,3.4702,3.4769,3.4815,3.4823,3.4904,3.4936,3.4995,3.5082,3.5123,3.5111,3.5248,3.5212,3.5216,3.5221,3.5268,3.5279,3.5289,3.5159,3.5158,3.5157,0,0,3.4515,3.4559,3.4628,3.467,3.4734,3.4762,3.4779,3.4844,3.4866,3.4948,3.4954,3.5008,3.5112,3.5153,3.5188,3.5278,3.5279,3.5296,3.5333,3.5379,3.5389,3.5397,3.5427,3.5438,3.5304,3.5304,3.5304,0,3.4537,3.4634,3.4662,3.4729,3.4768,3.4779,3.4847,3.4886,3.4966,3.4991,3.4977,3.5107,3.5147,3.5243,3.5265,3.5293,3.5311,3.5289,3.5385,3.5394,3.5402,3.5431,3.5443,3.5306,3.5306,3.5305,3.5305,0,3.4657,3.4723,3.4771,3.4848,3.4893,3.496,3.4997,3.5038,3.505,3.5078,3.5161,3.5209,3.5277,3.5301,3.5313,3.5398,3.5388,3.538,3.5353,3.5414,3.5442,3.5454,3.5308,3.5307,3.5307,3.5307,0,0,3.4742,3.4833,3.485,3.4884,3.4955,3.5006,3.5072,3.514,3.5173,3.5227,3.5282,3.5369,3.5361,3.54,3.5416,3.5457,3.5523,3.5443,3.5444,3.5455,3.5617,3.5623,3.5636,3.5524,3.5527,3.5528,3.5612,0,3.4826,3.4947,3.4973,3.5076,3.5136,3.5146,3.5203,3.5251,3.5279,3.5333,3.5363,3.5424,3.5409,3.5432,3.5473,3.5506,3.5556,3.5501,3.5573,3.5576,3.5558,3.5651,3.5658,3.5734,3.5623,3.5625,3.5626,0,3.4941,3.4999,3.5108,3.5168,3.5195,3.5246,3.5309,3.5361,3.5414,3.5432,3.5474,3.5486,3.5552,3.5523,3.5614,3.5576,3.5607,3.5627,3.5631,3.5638,3.5604,3.5659,3.5759,3.577,3.5644,3.5643,3.5642,0,3.499,3.5094,3.5173,3.5202,3.5275,3.5311,3.5343,3.5394,3.5432,3.5487,3.5511,3.5572,3.5605,3.565,3.5677,3.5653,3.5765,3.5738,3.5779,3.5779,3.5802,3.58,3.5907,3.5824,3.5824,3.5823,3.5823,0,3.5081,3.5147,3.5195,3.5243,3.5316,3.5345,3.5416,3.5447,3.5493,3.5545,3.5557,3.5606,3.5638,3.569,3.5711,3.5782,3.5797,3.5811,3.5816,3.581,3.5808,3.583,3.5825,3.5826,3.5826,3.5825,3.5825,0,3.5148,3.5184,3.5269,3.5331,3.5348,3.5399,3.5452,3.5497,3.5525,3.5591,3.5608,3.5651,3.5713,3.5744,3.5821,3.5835,3.5914,3.5916,3.5897,3.5899,3.5937,3.5933,3.6062,3.6079,3.5985,3.5986,3.5986,0,3.5204,3.5255,3.5322,3.5359,3.5392,3.5451,3.549,3.5519,3.5559,3.5623,3.566,3.5723,3.5775,3.5873,3.591,3.5968,3.597,3.6012,3.5979,3.5971,3.5969,3.5966,3.597,3.6017,3.6018,3.6019,3.6019,0,3.5298,3.5313,3.5369,3.5432,3.5478,3.5528,3.5578,3.5606,3.5643,3.5687,3.5751,3.5791,3.587,3.5931,3.5992,3.6022,3.6026,3.6029,3.6042,3.6036,3.6022,3.6028,3.5911,3.6026,3.6025,3.6025,3.6025,3.6024,3.536,3.5405,3.5459,3.5522,3.5562,3.5607,3.5653,3.5686,3.5741,3.5808,3.5821,3.5889,3.5938,3.602,3.6052,3.6104,3.6095,3.6113,3.6117,3.6121,3.6122,3.6014,3.6115,3.6115,3.6115,3.6115,3.6115,0,3.5454,3.5489,3.5546,3.5615,3.5663,3.5664,3.5718,3.5757,3.5817,3.5864,3.5915,3.5987,3.6046,3.6087,3.6147,3.618,3.6183,3.6194,3.6192,3.6198,3.6128,3.6111,3.6191,3.6191,3.6191,3.6191,3.6191,3.6191,3.5508,3.5584,3.5604,3.5699,3.5733,3.58,3.5831,3.5872,3.5909,3.599,3.604,3.6066,3.611,3.6173,3.6226,3.6236,3.6257,3.6268,3.6278,3.6211,3.6203,3.6196,3.618,3.6272,3.6273,3.6343,3.6344,3.6345]}]]